• In Latvia
  • List of Countries
  • For 7 days
  • Water Temperature
  • Satellite Maps
  • Weather Map
  • Weather Widgets
  • user-avatar
    Login

    Hourly Weather Kramatorsk

    Today, 19 November, Sunday

    Time Temperature Precipitation Wind Pressure Humidity
    00:00 +3°C° 0.1 mm 2 mps 755 mmHg 75%
    01:00 +3°C° 0 mm 2 mps 755 mmHg 77%
    02:00 +3°C° 0 mm 2 mps 754 mmHg 79%
    03:00 +2°C° 0 mm 3 mps 753 mmHg 82%
    04:00 +3°C° 0.1 mm 2 mps 753 mmHg 84%
    05:00 +3°C° 0.1 mm 2 mps 753 mmHg 85%
    06:00 +4°C° 0.1 mm 2 mps 752 mmHg 87%
    07:00 +4°C° 0.1 mm 2 mps 752 mmHg 88%
    08:00 +4°C° 0.1 mm 2 mps 752 mmHg 88%
    09:00 +4°C° 0.1 mm 3 mps 751 mmHg 88%
    10:00 +5°C° 0 mm 3 mps 751 mmHg 83%
    11:00 +7°C° 0 mm 3 mps 751 mmHg 78%
    12:00 +9°C° 0 mm 3 mps 751 mmHg 73%
    13:00 +9°C° 0 mm 3 mps 751 mmHg 72%
    14:00 +10°C° 0 mm 3 mps 750 mmHg 71%
    15:00 +10°C° 0 mm 2 mps 750 mmHg 69%
    16:00 +9°C° 0 mm 2 mps 750 mmHg 73%
    17:00 +9°C° 0 mm 2 mps 750 mmHg 77%
    18:00 +9°C° 0 mm 1 mps 750 mmHg 82%
    19:00 +9°C° 0.2 mm 1 mps 750 mmHg 83%
    20:00 +9°C° 0.2 mm 1 mps 750 mmHg 85%
    21:00 +9°C° 0.2 mm 1 mps 749 mmHg 87%
    22:00 +9°C° 0.6 mm 1 mps 749 mmHg 88%
    23:00 +9°C° 0.6 mm 1 mps 749 mmHg 89%

    Tomorrow, 20 November, Monday

    Time Temperature Precipitation Wind Pressure Humidity
    00:00 +9°C° 0.6 mm 1 mps 749 mmHg 91%
    01:00 +8°C° 0 mm 1 mps 749 mmHg 91%
    02:00 +8°C° 0 mm 1 mps 749 mmHg 91%
    03:00 +8°C° 0 mm 1 mps 749 mmHg 91%
    04:00 +8°C° 0 mm 1 mps 749 mmHg 91%
    05:00 +8°C° 0 mm 1 mps 749 mmHg 92%
    06:00 +6°C° 0 mm 2 mps 749 mmHg 92%
    07:00 +6°C° 0 mm 2 mps 748 mmHg 91%
    08:00 +6°C° 0 mm 2 mps 748 mmHg 91%
    09:00 +6°C° 0 mm 2 mps 748 mmHg 90%
    10:00 +7°C° 0 mm 3 mps 748 mmHg 85%
    11:00 +8°C° 0 mm 3 mps 747 mmHg 80%
    12:00 +9°C° 0 mm 3 mps 747 mmHg 75%
    13:00 +10°C° 0.1 mm 3 mps 746 mmHg 74%
    14:00 +10°C° 0.1 mm 3 mps 746 mmHg 73%
    15:00 +11°C° 0.1 mm 3 mps 746 mmHg 72%
    16:00 +10°C° 0.3 mm 3 mps 745 mmHg 77%
    17:00 +10°C° 0.3 mm 3 mps 745 mmHg 82%
    18:00 +10°C° 0.3 mm 3 mps 745 mmHg 87%
    19:00 +9°C° 0.5 mm 3 mps 745 mmHg 88%
    20:00 +8°C° 0.5 mm 4 mps 744 mmHg 88%
    21:00 +8°C° 0.5 mm 4 mps 744 mmHg 88%
    22:00 +7°C° 0.2 mm 4 mps 744 mmHg 88%
    23:00 +7°C° 0.2 mm 5 mps 744 mmHg 87%

    Day after tomorrow, 21 November, Tuesday

    Time Temperature Precipitation Wind Pressure Humidity
    00:00 +6°C° 0.2 mm 5 mps 744 mmHg 87%
    01:00 +5°C° 0.1 mm 5 mps 745 mmHg 86%
    02:00 +3°C° 0.1 mm 5 mps 745 mmHg 85%
    03:00 +3°C° 0.1 mm 5 mps 745 mmHg 84%
    04:00 +2°C° 0 mm 5 mps 745 mmHg 83%
    05:00 +2°C° 0 mm 6 mps 745 mmHg 82%
    06:00 +1°C° 0 mm 6 mps 746 mmHg 81%
    07:00 +1°C° 0 mm 5 mps 746 mmHg 81%
    08:00 +1°C° 0 mm 5 mps 747 mmHg 80%
    09:00 +1°C° 0 mm 5 mps 747 mmHg 79%
    10:00 +1°C° 0 mm 5 mps 747 mmHg 76%
    11:00 +2°C° 0 mm 5 mps 748 mmHg 73%
    12:00 +2°C° 0 mm 5 mps 748 mmHg 69%
    13:00 +3°C° 0 mm 4 mps 748 mmHg 67%
    14:00 +3°C° 0 mm 4 mps 748 mmHg 65%
    15:00 +3°C° 0 mm 4 mps 748 mmHg 62%
    16:00 +3°C° 0 mm 4 mps 749 mmHg 66%
    17:00 +2°C° 0 mm 3 mps 749 mmHg 69%
    18:00 +2°C° 0 mm 3 mps 749 mmHg 73%
    19:00 +2°C° 0 mm 3 mps 750 mmHg 73%
    20:00 +1°C° 0 mm 3 mps 750 mmHg 74%
    21:00 +1°C° 0 mm 3 mps 750 mmHg 75%
    22:00 +1°C° 0 mm 3 mps 751 mmHg 74%
    23:00 +1°C° 0 mm 3 mps 751 mmHg 73%

    22 November, Wednesday

    Time Temperature Precipitation Wind Pressure Humidity
    00:00 +1°C° 0 mm 2 mps 751 mmHg 73%
    01:00 +1°C° 0 mm 2 mps 751 mmHg 74%
    02:00 +1°C° 0 mm 2 mps 752 mmHg 75%
    03:00 -1°C° 0 mm 2 mps 752 mmHg 76%
    04:00 -1°C° 0 mm 2 mps 752 mmHg 77%
    05:00 -1°C° 0 mm 2 mps 752 mmHg 77%
    06:00 -1°C° 0 mm 2 mps 752 mmHg 78%
    07:00 +1°C° 0 mm 1 mps 753 mmHg 76%
    08:00 +1°C° 0 mm 1 mps 753 mmHg 74%
    09:00 +1°C° 0 mm 1 mps 753 mmHg 72%
    10:00 +2°C° 0 mm 1 mps 754 mmHg 67%
    11:00 +3°C° 0 mm 1 mps 754 mmHg 62%
    12:00 +4°C° 0 mm 1 mps 754 mmHg 57%
    13:00 +4°C° 0 mm 1 mps 754 mmHg 56%
    14:00 +4°C° 0 mm 1 mps 754 mmHg 55%
    15:00 +3°C° 0 mm 2 mps 754 mmHg 54%
    16:00 +3°C° 0 mm 2 mps 755 mmHg 58%
    17:00 +2°C° 0 mm 2 mps 755 mmHg 63%
    18:00 +2°C° 0 mm 1 mps 756 mmHg 67%
    19:00 +1°C° 0 mm 2 mps 756 mmHg 70%
    20:00 -1°C° 0 mm 2 mps 756 mmHg 73%
    21:00 -1°C° 0 mm 2 mps 757 mmHg 76%
    22:00 -1°C° 0 mm 2 mps 757 mmHg 78%
    23:00 -1°C° 0 mm 2 mps 757 mmHg 80%

    23 November, Thursday

    Time Temperature Precipitation Wind Pressure Humidity
    00:00 -2°C° 0 mm 2 mps 758 mmHg 83%
    01:00 0°C° 0 mm 1 mps 758 mmHg 84%
    02:00 0°C° 0 mm 1 mps 758 mmHg 85%
    03:00 0°C° 0 mm 1 mps 759 mmHg 86%
    04:00 0°C° 0 mm 1 mps 759 mmHg 86%
    05:00 -1°C° 0 mm 0 mps 759 mmHg 86%
    06:00 -1°C° 0 mm 0 mps 760 mmHg 87%
    07:00 -1°C° 0 mm 0 mps 760 mmHg 85%
    08:00 -1°C° 0 mm 0 mps 761 mmHg 83%
    09:00 0°C° 0 mm 0 mps 761 mmHg 81%
    10:00 +1°C° 0 mm 0 mps 762 mmHg 75%
    11:00 +2°C° 0 mm 0 mps 762 mmHg 68%
    12:00 +4°C° 0 mm 1 mps 762 mmHg 62%
    13:00 +4°C° 0 mm 1 mps 762 mmHg 60%
    14:00 +4°C° 0 mm 1 mps 762 mmHg 58%
    15:00 +4°C° 0 mm 1 mps 762 mmHg 56%
    16:00 +3°C° 0 mm 1 mps 763 mmHg 60%
    17:00 +2°C° 0 mm 1 mps 763 mmHg 64%
    18:00 +2°C° 0 mm 1 mps 763 mmHg 69%
    19:00 +1°C° 0 mm 1 mps 763 mmHg 69%
    20:00 -1°C° 0 mm 2 mps 764 mmHg 70%
    21:00 -1°C° 0 mm 2 mps 764 mmHg 71%
    22:00 -1°C° 0 mm 2 mps 764 mmHg 72%
    23:00 -1°C° 0 mm 2 mps 764 mmHg 72%

    24 November, Friday

    Time Temperature Precipitation Wind Pressure Humidity
    00:00 -1°C° 0 mm 2 mps 764 mmHg 73%
    01:00 -1°C° 0 mm 3 mps 764 mmHg 72%
    02:00 -1°C° 0 mm 3 mps 764 mmHg 71%
    03:00 -1°C° 0 mm 3 mps 764 mmHg 70%
    04:00 -1°C° 0 mm 3 mps 764 mmHg 69%
    05:00 -1°C° 0 mm 3 mps 764 mmHg 67%
    06:00 -1°C° 0 mm 3 mps 764 mmHg 65%
    07:00 -1°C° 0 mm 4 mps 764 mmHg 65%
    08:00 -1°C° 0 mm 4 mps 764 mmHg 65%
    09:00 0°C° 0 mm 4 mps 764 mmHg 64%
    10:00 0°C° 0 mm 4 mps 764 mmHg 64%
    11:00 +1°C° 0 mm 5 mps 764 mmHg 64%
    12:00 +2°C° 0 mm 5 mps 764 mmHg 64%
    13:00 +2°C° 0 mm 5 mps 764 mmHg 67%
    14:00 +2°C° 0 mm 5 mps 764 mmHg 70%
    15:00 +3°C° 0 mm 4 mps 764 mmHg 72%
    16:00 +3°C° 0 mm 4 mps 763 mmHg 75%
    17:00 +3°C° 0 mm 4 mps 763 mmHg 78%
    18:00 +3°C° 0 mm 4 mps 763 mmHg 80%
    19:00 +3°C° 0 mm 4 mps 763 mmHg 82%
    20:00 +3°C° 0 mm 4 mps 763 mmHg 84%
    21:00 +3°C° 0 mm 4 mps 763 mmHg 85%
    22:00 +3°C° 0 mm 4 mps 763 mmHg 86%
    23:00 +3°C° 0 mm 4 mps 764 mmHg 87%
    Show more